Simultaneous Nadir Overpasses (SNOs) Predictions

Prediction of SNOs between AQUA and NOAA-19 Satellite Orbit:

Table of predicted SNOs for the next 14.0 days since TLE Epoch: 5/25/2024
Index Date (AQUA) Time (AQUA) Lat,Lon (AQUA) SZA (AQUA ) Date (NOAA-19) Time (NOAA-19) Lat,Lon (NOAA-19) SZA (NOAA-19 ) Distance(km) Time Diff (sec)
1 05/26/2024 06:21:10 -75.57, -97.54 125.73 05/26/2024 06:19:59 -75.48, -98.79 125.81 36.51 71
2 05/26/2024 07:10:37 75.76, 69.55 54.47 05/26/2024 07:10:45 75.80, 69.56 54.50 3.60 8
3 05/28/2024 11:00:44 -75.76,-167.93 125.89 05/28/2024 11:00:50 -75.76,-168.01 125.89 2.10 6
4 05/30/2024 14:50:52 75.76, -45.42 53.79 05/30/2024 14:50:43 75.74, -45.50 53.77 3.10 9
5 06/01/2024 18:40:57 -75.76, 77.10 126.51 06/01/2024 18:40:46 -75.76, 77.10 126.51 0.16 11
6 06/01/2024 19:30:24 75.96,-115.86 53.70 06/01/2024 19:31:35 75.97,-114.89 53.70 26.39 71
7 06/03/2024 22:31:02 75.72,-160.28 53.19 06/03/2024 22:30:39 75.74,-160.39 53.21 3.37 23
8 06/03/2024 23:20:27 -75.91, 6.81 126.62 06/03/2024 23:21:39 -75.92, 7.48 126.62 18.10 72
9 06/06/2024 02:21:05 -75.72, -37.76 127.04 06/06/2024 02:20:41 -75.75, -37.79 127.01 3.44 24



Historial Predications of SNOs between AQUA and NOAA-19
